Regional Weather Roundup
Issued by NWS

Home | Current Version | Previous Version | Graphics & Text | Print | Product List | Glossary On
Versions: 1 2 3 4 5 6 7 8 9 10 11 12 13 14 15 16 17 18 19 20 21 22 23 24 25 26 27 28 29 30 31 32 33 34 35 36 37 38 39 40 41 42 43 44 45 46 47 48 49 50
000
ASUS45 KABQ 211210
RWRNM
NEW MEXICO REGIONAL WEATHER ROUNDUP
NATIONAL WEATHER SERVICE ALBUQUERQUE NM
500 AM MST SAT JAN 21 2017

NOTE: "FAIR" MEANS FEW OR NO CLOUDS BELOW 12,000 FEET AGL WITH NO
       SIGNIFICANT WEATHER OR OBSTRUCTIONS TO VISION.

      THIS PRODUCT IS RELEASED AS TWO VERSIONS.  ONE VERSION NEAR
      THE TOP OF THE HOUR CONTAINING PRELIMINARY DATA FROM ALBUQUERQUE
      AND OTHER STATIONS.  A FINAL VERSION WITH ADDITIONAL DATA IS
      ISSUED ABOUT 10 MINUTES AFTER THE HOUR.

NMZ501-503-504-510>518-211300-
NORTHWEST PLATEAU/NORTHCENTRAL MOUNTAINS

CITY           SKY/WX    TMP DP  RH WIND       PRES   REMARKS
FARMINGTON     CLOUDY    34  30  85 SE9       29.34F WCI  27
6HR MIN TEMP:  32; 6HR MAX TEMP:  35; 6HR PCP:  0.09;

LOS ALAMOS     MIX PCPN  29  29 100 S8        29.42F WCI  21
SANTA FE       CLOUDY    33  31  92 S3        29.43F
6HR MIN TEMP:  31; 6HR MAX TEMP:  33; 6HR PCP:  0.04;

TAOS           CLOUDY    30  21  69 CALM      29.42F
ANGEL FIRE     LGT SNOW  28  24  88 CALM      29.42F

$$
NMZ402-403-502-505>509-211300-
WESTCENTRAL MOUNTAINS/SOUTHWEST MOUNTAINS

CITY           SKY/WX    TMP DP  RH WIND       PRES   REMARKS
GALLUP         LGT SNOW  32  31  96 S17       29.38R VSB 3/4 WCI  21
6HR MIN TEMP:  32; 6HR MAX TEMP:  34; 6HR PCP:  0.12;

GRANTS         LGT SNOW  32  31  97 S12       29.44S WCI  23
SILVER CITY    LGT RAIN  35  32  89 W14G23    29.56R WCI  26

$$
NMZ407-409-411-412-211300-
SOUTHERN DESERTS

CITY           SKY/WX    TMP DP  RH WIND       PRES   REMARKS
DEMING         LGT RAIN  39  36  89 SW23G33   29.58R WCI  28
6HR MIN TEMP:  39; 6HR MAX TEMP:  43; 6HR PCP:  0.31;

LAS CRUCES     RAIN      41  40  95 SW9       29.55R
HOLLOMAN AFB   DRIZZLE   43  41  94 SE14      29.54F
ALAMOGORDO     MOCLDY    41  39  93 S14G21    29.54F
T OR C         LGT RAIN  39  36  89 SW15      29.52R WCI  31
6HR MIN TEMP:  39; 6HR MAX TEMP:  42; 6HR PCP:  0.06;


$$
NMZ519>523-211300-
CENTRAL VALLEYS/CENTRAL HIGHLANDS

CITY           SKY/WX    TMP DP  RH WIND       PRES   REMARKS
ALBUQUERQUE    CLOUDY    38  36  92 S16       29.45S WCI  29
6HR MIN TEMP:  36; 6HR MAX TEMP:  38; 6HR PCP:  0.04;

DOUBLE EAGLE   CLOUDY    35  34  97 S14G21    29.45S WCI  26
MORIARTY ARPT  FAIR      34  32  90 S14       29.45R WCI  25
6HR MIN TEMP:  32; 6HR MAX TEMP:  35;

CLINES CORNERS CLOUDY    32  30  92 SW31G41   29.43F WCI  17
6HR MIN TEMP:  30; 6HR MAX TEMP:  32; 6HR PCP:  0.01;

BELEN          CLOUDY    39  36  89 S16       29.46S WCI  30
6HR MIN TEMP:  38; 6HR MAX TEMP:  40;

SOCORRO        RAIN      39  36  90 S12       29.49R WCI  31
6HR MIN TEMP:  39; 6HR MAX TEMP:  42;


$$
NMZ524>526-539-540-211300-
SOUTHCENTRAL MOUNTAINS

CITY           SKY/WX    TMP DP  RH WIND       PRES   REMARKS
RUIDOSO        LGT SNOW  32  32 100 SW17G28   29.51S WCI  21

$$
NMZ527>531-211300-
NORTHEAST HIGHLANDS/NORTHEAST PLAINS

CITY           SKY/WX    TMP DP  RH WIND       PRES   REMARKS
LAS VEGAS      MOCLDY    31  30  96 SW15      29.39F WCI  20
6HR MIN TEMP:  28; 6HR MAX TEMP:  32; 6HR PCP: TRACE;

RATON          FAIR      21  17  84 NE5       29.41F WCI  15
6HR MIN TEMP:  21; 6HR MAX TEMP:  29;

CLAYTON        FAIR      33  31  92 SW12      29.42S WCI  24
6HR MIN TEMP:  32; 6HR MAX TEMP:  38;


$$
NMZ532>537-211300-
EASTCENTRAL PLAINS

CITY           SKY/WX    TMP DP  RH WIND       PRES   REMARKS
TUCUMCARI      FAIR      37  32  82 S6        29.45F WCI  32
6HR MIN TEMP:  32; 6HR MAX TEMP:  38;

CANNON AFB     FAIR      35  35 100 CALM      29.47F
6HR MIN TEMP:  35; 6HR MAX TEMP:  40;

CLOVIS AIRPORT FAIR      34  28  80 SW6       29.48F WCI  29

$$
NMZ028-029-538-211300-
SOUTHEAST PLAINS

CITY           SKY/WX    TMP DP  RH WIND       PRES   REMARKS
ROSWELL        FAIR      44  35  70 S15       29.47F
6HR MIN TEMP:  42; 6HR MAX TEMP:  49;

ARTESIA        FAIR      45  39  81 SW9       29.53S
CARLSBAD       CLOUDY    51  36  56 SW18G25   29.53S
6HR MIN TEMP:  43; 6HR MAX TEMP:  56;



$$



USA.gov is the U.S. government's official web portal to all federal, state and local government web resources and services.